Location: Recife
(8.0585°S, 34.8848°W)
Time: 10:46:37
(UTC-03:00)

Vanguard 2 Rocket - Pass Details

Date: 15 April 2026
Orbit: 553 x 3286 km, 32.9° (Epoch: 8 May)

Event Time Altitude Azimuth Distance (km) Brightness Sun altitude
Rises 07:12:17 0° 258° (WSW) 4,283 9.8 25.9°
Reaches altitude 10° 07:15:20 10° 246° (WSW) 3,661 9.5 26.6°
Maximum altitude 07:23:42 28° 190° (S) 3,305 9.7 28.6°
Drops below altitude 10° 07:36:24 10° 137° (SE) 5,612 11.3 31.6°
Sets 07:42:39 0° 126° (SE) 6,974 11.9 33.1°
